Wind_Speed
12 12 12 12 12 13 13 13 14 14 15 16 16 16 17 17 17 16 16 16 16 17 17 17 16 16 16 17 17 18 18 19 19 20 21 21 22 22
13 13 12 12 13 14 14 14 15 16 16 16 17 18 18 17 16 17 17 16 16 16 17 16 17 17 17 18 18 18 19 19 20 21 22 22 23 24
13 13 13 13 14 15 16 16 16 16 16 17 18 18 17 18 18 17 17 17 17 17 17 18 18 17 18 18 18 18 19 20 20 21 21 22 22 23
14 14 15 15 15 16 17 17 17 17 17 17 17 18 18 18 18 18 18 18 18 18 18 18 18 18 19 19 19 20 20 20 21 21 22 22 22 22
16 16 16 17 17 18 18 19 19 18 18 18 18 19 18 18 18 19 19 19 19 19 19 19 19 19 20 20 20 21 21 21 22 22 22 22 22 22
17 17 18 19 20 20 20 21 21 20 20 20 20 20 20 19 19 20 20 20 20 20 20 20 20 21 21 21 22 22 22 22 23 23 23 23 23 23
18 19 20 21 22 22 22 21 22 21 21 21 21 21 21 21 21 21 20 20 21 21 21 21 22 22 23 22 23 23 23 23 23 23 23 23 24 24
19 20 20 21 22 23 23 23 23 23 22 23 23 23 23 22 21 21 21 22 22 22 21 22 22 23 24 23 24 24 24 24 24 24 24 24 24 25
19 20 21 21 22 23 24 24 24 24 24 25 25 25 24 23 23 23 23 23 23 24 23 23 23 24 25 25 25 25 24 25 25 25 25 25 25 24
22 22 23 23 24 24 25 25 25 25 25 25 26 26 26 25 25 25 25 25 25 26 26 25 25 25 25 25 26 25 25 26 26 26 26 26 26 26
23 24 24 25 25 26 26 26 26 25 25 25 26 26 27 27 27 27 27 27 27 27 27 26 26 26 26 26 26 26 26 27 27 27 28 28 28 28
26 25 25 26 27 27 27 27 27 26 26 26 27 27 28 28 28 28 29 29 28 28 28 28 27 27 26 27 27 28 28 27 27 28 29 29 29 29
27 27 27 26 27 27 28 28 28 28 27 27 27 28 29 29 29 30 31 31 30 29 29 29 29 29 28 27 27 28 29 29 29 29 29 30 30 30
28 28 27 28 28 28 29 29 30 30 28 28 28 28 29 30 30 31 31 31 31 30 30 30 29 29 29 29 28 28 28 28 29 30 30 31 31 30
29 29 29 29 29 28 29 29 29 29 29 30 30 30 30 30 31 31 31 32 31 31 30 30 30 30 30 29 29 30 30 30 30 30 30 30 29 29
29 29 29 29 29 29 28 29 29 30 30 31 31 31 31 30 31 31 31 32 32 31 31 31 32 32 32 31 31 31 31 30 30 30 30 29 29 28
30 29 30 29 30 30 30 30 31 31 30 31 31 31 31 31 31 32 32 32 31 31 32 32 32 33 33 33 32 32 31 31 31 31 30 30 29 29
31 31 30 31 31 32 32 32 32 32 32 32 32 32 32 32 32 32 32 33 33 32 32 32 32 33 33 33 33 33 32 32 32 31 31 31 30 30
32 32 32 33 33 33 33 34 34 34 33 33 33 33 34 34 34 34 34 34 34 33 33 33 33 33 34 34 34 35 34 33 33 33 33 32 32 31
32 33 34 34 35 35 35 35 35 35 34 34 34 35 35 35 35 35 35 35 35 34 34 34 34 34 35 35 35 35 34 34 34 34 34 33 33 32
33 34 35 35 36 36 36 36 36 36 36 35 35 35 36 36 36 36 35 35 35 35 34 34 35 35 35 35 34 34 34 34 34 34 34 34 33 33
34 35 35 36 36 36 37 37 37 37 36 36 36 36 36 36 35 35 36 36 36 36 35 35 34 35 34 34 34 34 35 35 35 34 34 35 35 35
33 34 34 35 36 37 37 37 37 38 37 36 36 36 37 37 37 37 36 37 36 36 36 36 35 35 35 34 34 34 34 34 35 35 35 35 36 36
Wind_Direction
297 296 293 293 293 292 291 290 290 289 287 287 287 287 287 285 284 284 283 282 280 279 281 279 277 278 278 277 275 273 272 270 266 265 264 264 262 261
295 296 295 293 292 294 293 293 292 291 289 287 287 287 287 285 285 281 282 281 282 283 282 281 280 279 279 278 276 274 272 272 271 269 267 265 264 262
298 299 297 296 295 295 295 294 294 294 292 289 287 286 283 284 283 283 282 283 283 283 284 283 281 280 280 279 278 276 275 273 272 271 270 268 265 262
298 297 296 297 297 296 296 295 295 294 293 292 290 288 286 285 283 282 281 280 282 283 283 282 281 280 278 278 278 278 276 275 274 273 272 270 268 266
297 296 296 295 296 296 296 296 294 293 292 291 290 289 287 286 283 281 280 280 281 283 283 282 280 279 278 278 277 278 277 276 275 273 272 271 270 269
298 296 295 294 295 294 295 295 293 291 290 290 289 287 285 286 285 282 281 280 279 280 281 281 280 279 279 278 278 278 276 274 274 273 271 269 269 268
298 297 295 294 294 294 293 294 293 292 290 290 289 288 286 286 285 283 281 280 280 280 280 279 280 279 278 277 277 277 277 275 273 272 270 269 268 267
298 297 296 295 294 295 296 295 294 292 291 289 288 288 286 285 285 283 282 280 279 280 281 280 280 279 277 276 276 276 275 275 272 271 271 269 268 267
298 297 298 299 297 296 297 295 292 290 289 288 286 286 285 283 283 283 282 281 281 281 282 283 282 282 279 278 277 277 275 274 272 271 270 269 267 266
296 295 295 296 296 296 296 295 292 290 288 287 286 285 284 283 283 283 282 281 281 281 280 280 280 281 280 278 277 276 275 274 272 270 268 268 267 266
293 293 294 295 296 295 294 293 293 292 290 289 288 286 284 283 282 282 281 280 280 280 279 279 279 279 279 277 276 274 273 272 271 269 268 268 268 268
293 292 292 294 295 295 295 293 291 290 290 290 289 288 286 285 283 283 282 280 279 279 277 276 276 277 277 276 275 274 272 270 269 269 267 266 267 267
294 291 290 292 293 295 295 294 293 291 290 290 290 289 288 286 285 284 283 281 280 279 276 275 275 275 276 276 275 274 273 271 270 269 268 267 266 265
293 291 290 291 292 293 293 293 292 291 289 289 290 290 289 288 286 285 284 282 281 280 277 275 275 275 275 275 274 274 273 272 271 270 270 269 266 264
290 290 290 291 291 293 293 293 294 291 290 290 290 290 289 288 288 287 285 284 282 281 279 275 274 275 274 273 273 273 272 270 270 271 272 270 266 264
289 289 290 291 292 293 294 293 293 291 291 290 289 289 289 288 288 287 285 285 283 280 278 276 274 273 273 272 272 272 271 270 269 270 270 268 265 267
291 290 289 290 291 292 293 293 292 291 290 289 289 288 288 288 287 286 285 285 283 281 278 277 275 274 273 273 273 272 271 269 268 267 267 266 263 263
290 290 290 290 291 291 291 291 291 290 289 289 290 288 288 287 286 285 284 284 283 281 278 277 276 274 273 272 271 271 269 267 266 266 265 264 262 261
290 289 289 290 290 290 290 290 290 290 289 288 289 288 287 286 285 284 283 283 282 281 279 277 275 275 274 273 272 272 270 268 266 265 265 263 261 259
291 290 289 288 288 288 289 288 289 291 291 289 289 289 288 286 285 284 283 282 282 281 279 277 276 275 275 275 273 273 271 270 269 267 264 262 261 260
291 290 290 289 288 288 288 288 289 290 289 289 289 288 287 286 284 283 282 282 281 281 279 277 276 275 275 275 273 272 271 270 268 267 266 264 262 261
291 290 290 290 289 288 288 289 289 290 289 288 288 288 287 286 285 283 282 281 281 280 279 277 275 275 274 274 273 271 270 269 268 267 266 264 262 261
290 289 289 289 289 289 289 288 288 289 289 288 289 288 288 288 287 285 283 282 281 280 278 276 275 275 275 274 272 271 271 269 268 267 265 263 262 262
Height
5871 5870 5868 5867 5866 5864 5862 5861 5860 5858 5856 5855 5853 5851 5850 5849 5847 5846 5845 5844 5843 5841 5840 5839 5838 5837 5836 5836 5835 5834 5833 5833 5832 5832 5832 5832 5831 5831
5867 5866 5864 5863 5861 5860 5858 5856 5855 5854 5852 5850 5848 5846 5845 5843 5842 5841 5840 5839 5838 5836 5835 5834 5833 5832 5831 5830 5829 5829 5828 5827 5827 5826 5826 5826 5825 5825
5863 5862 5860 5859 5857 5855 5854 5852 5850 5848 5846 5844 5842 5840 5839 5838 5837 5835 5834 5833 5832 5831 5830 5829 5828 5827 5826 5825 5824 5823 5822 5822 5821 5820 5820 5819 5819 5819
5859 5857 5856 5854 5853 5851 5849 5847 5845 5843 5842 5840 5837 5835 5834 5832 5831 5830 5829 5828 5826 5825 5824 5823 5822 5821 5820 5819 5818 5817 5816 5816 5815 5814 5814 5813 5813 5812
5854 5853 5851 5849 5848 5846 5844 5842 5840 5838 5836 5834 5832 5830 5828 5827 5826 5824 5823 5822 5820 5819 5818 5817 5816 5815 5814 5812 5811 5811 5810 5809 5808 5807 5807 5806 5806 5806
5849 5847 5846 5844 5843 5841 5839 5836 5834 5832 5830 5828 5826 5825 5823 5821 5820 5818 5817 5815 5814 5813 5812 5810 5809 5808 5807 5806 5805 5804 5803 5802 5801 5801 5800 5799 5799 5799
5844 5842 5841 5839 5837 5835 5833 5830 5828 5826 5824 5822 5820 5819 5817 5815 5813 5812 5810 5809 5808 5806 5805 5804 5802 5801 5800 5799 5798 5797 5796 5795 5794 5793 5793 5792 5792 5792
5839 5837 5835 5833 5831 5829 5826 5824 5822 5820 5818 5816 5814 5812 5811 5809 5807 5805 5804 5803 5802 5800 5798 5797 5795 5794 5792 5791 5790 5789 5788 5787 5787 5786 5785 5785 5785 5785
5833 5831 5829 5827 5824 5822 5820 5817 5815 5813 5811 5809 5807 5805 5803 5802 5800 5798 5797 5796 5795 5793 5792 5790 5788 5787 5785 5783 5782 5781 5780 5780 5779 5778 5778 5777 5777 5777
5827 5825 5822 5820 5818 5816 5813 5811 5808 5806 5803 5801 5800 5797 5796 5794 5793 5791 5789 5788 5787 5785 5784 5783 5781 5779 5777 5776 5775 5773 5772 5772 5771 5771 5770 5770 5769 5769
5820 5818 5815 5813 5811 5808 5806 5804 5801 5798 5796 5794 5792 5790 5788 5786 5785 5783 5781 5780 5779 5777 5775 5774 5773 5771 5769 5768 5766 5765 5764 5763 5763 5762 5762 5761 5761 5761
5812 5810 5808 5805 5803 5800 5798 5795 5793 5791 5788 5786 5784 5782 5780 5778 5776 5774 5772 5771 5769 5768 5766 5765 5764 5762 5762 5760 5759 5757 5756 5755 5754 5754 5753 5753 5752 5752
5805 5802 5800 5797 5794 5792 5789 5787 5784 5782 5780 5778 5776 5773 5771 5769 5767 5765 5763 5761 5760 5759 5757 5756 5755 5753 5752 5752 5750 5749 5747 5746 5746 5745 5744 5744 5743 5743
5796 5794 5791 5789 5786 5783 5781 5779 5776 5774 5771 5769 5767 5765 5762 5760 5758 5755 5753 5751 5750 5749 5747 5746 5745 5744 5743 5742 5742 5740 5739 5737 5736 5736 5735 5734 5734 5734
5788 5785 5783 5780 5778 5775 5772 5770 5768 5765 5763 5761 5758 5756 5753 5751 5748 5746 5744 5742 5740 5738 5737 5736 5735 5734 5733 5733 5732 5731 5730 5728 5727 5726 5725 5725 5724 5724
5779 5777 5774 5772 5769 5766 5764 5761 5759 5756 5754 5752 5749 5747 5744 5741 5739 5736 5734 5732 5730 5729 5727 5726 5725 5724 5723 5722 5722 5721 5720 5719 5718 5717 5716 5715 5715 5715
5770 5768 5766 5763 5760 5758 5755 5753 5750 5747 5745 5742 5740 5737 5735 5732 5729 5727 5724 5722 5720 5719 5717 5716 5715 5713 5712 5711 5711 5710 5710 5709 5708 5707 5707 5706 5706 5706
5761 5759 5756 5754 5751 5749 5746 5743 5741 5738 5735 5733 5730 5727 5724 5722 5719 5717 5714 5712 5710 5709 5707 5706 5705 5703 5702 5701 5701 5700 5699 5699 5698 5698 5697 5697 5697 5697
5752 5749 5746 5744 5742 5739 5736 5733 5730 5728 5725 5722 5719 5717 5714 5711 5709 5706 5704 5702 5700 5698 5696 5695 5694 5692 5691 5690 5690 5689 5688 5688 5687 5687 5687 5687 5687 5688
5742 5739 5737 5734 5731 5729 5726 5723 5720 5717 5714 5711 5708 5706 5703 5700 5698 5695 5693 5691 5689 5687 5685 5684 5682 5681 5680 5679 5679 5678 5676 5676 5676 5676 5676 5676 5677 5677
5731 5729 5726 5724 5721 5718 5715 5712 5709 5707 5704 5700 5697 5694 5691 5688 5686 5684 5681 5679 5677 5676 5674 5673 5671 5670 5668 5668 5667 5666 5666 5665 5664 5664 5665 5665 5666 5666
5721 5718 5715 5713 5710 5707 5704 5701 5698 5695 5692 5689 5686 5683 5680 5677 5674 5672 5670 5668 5666 5664 5662 5661 5659 5658 5657 5656 5655 5655 5654 5653 5652 5652 5653 5654 5654 5655
5710 5707 5704 5701 5698 5695 5692 5689 5686 5683 5680 5677 5674 5671 5668 5665 5662 5660 5657 5655 5653 5651 5650 5648 5647 5646 5645 5644 5644 5643 5642 5641 5641 5641 5642 5642 5643 5644